EW8359 Weather Reports


Display with metric or nautical units.
time (UTC)temp
F
wind
direction
speed
MPH
gust
MPH
rain 1hr
in
rain 24hr
in
rain mn
in
humidity
%
barometer
mb
20260505220033 75 139 0.0 10.0 0.00 0.00 0.00 44 1001.4
20260505214536 75 179 2.0 14.0 0.00 0.00 0.00 43 1001.2
20260505213033 76 148 5.0 20.0 0.00 0.00 0.00 43 1001.1
20260505211519 78 122 1.0 14.0 0.00 0.00 0.00 40 1000.8
20260505210019 79 65 4.0 21.0 0.00 0.00 0.00 40 1000.9
20260505204527 77 144 4.0 13.0 0.00 0.00 0.00 42 1000.8
20260505203021 79 38 1.0 14.0 0.00 0.00 0.00 39 1000.8
20260505201518 80 109 2.0 16.0 0.00 0.00 0.00 39 1001.0
20260505200018 80 140 1.0 11.0 0.00 0.00 0.00 41 1000.9
20260505194515 79 156 0.0 15.0 0.00 0.00 0.00 41 1001.1
20260505193034 79 117 2.0 13.0 0.00 0.00 0.00 39 1001.3
20260505191511 80 215 2.0 10.0 0.00 0.00 0.00 38 1001.7
20260505190023 80 186 2.0 11.0 0.00 0.00 0.00 39 1001.8
20260505184509 80 182 2.0 23.0 0.00 0.00 0.00 35 1002.1
20260505183015 80 247 2.0 11.0 0.00 0.00 0.00 37 1002.1
20260505181512 81 190 5.0 18.0 0.00 0.00 0.00 34 1002.4
20260505180003 82 274 2.0 12.0 0.00 0.00 0.00 34 1002.5
20260505174600 81 117 3.0 14.0 0.00 0.00 0.00 36 1002.8
20260505173158 81 196 1.0 9.0 0.00 0.00 0.00 37 1003.0
20260505171553 80 247 3.0 16.0 0.00 0.00 0.00 36 1003.3
20260505170058 80 246 4.0 14.0 0.00 0.00 0.00 38 1003.5
20260505164548 79 136 3.0 11.0 0.00 0.00 0.00 37 1003.7
20260505163043 78 281 0.0 13.0 0.00 0.00 0.00 41 1004.3
20260505161540 78 117 1.0 12.0 0.00 0.00 0.00 40 1004.5
20260505153032 74 139 1.0 8.0 0.00 0.00 0.00 46 1005.4
20260505151526 73 207 0.0 6.0 0.00 0.00 0.00 46 1005.5
20260505124607 62 163 0.0 6.0 0.00 0.00 0.00 58 1006.4
20260505123112 62 222 0.0 8.0 0.00 0.00 0.00 57 1006.2
20260505121555 61 134 0.0 8.0 0.00 0.00 0.00 58 1005.8
20260505120054 59 211 0.0 8.0 0.00 0.00 0.00 61 1005.9
20260505114556 58 203 0.0 3.0 0.00 0.00 0.00 63 1006.1
20260505113051 55 143 0.0 8.0 0.00 0.00 0.00 68 1006.1
20260505111546 53 209 0.0 5.0 0.00 0.00 0.00 74 1006.1
20260505101545 46 133 0.0 0.0 0.00 0.00 0.00 82 1006.2
20260505100041 46 133 0.0 0.0 0.00 0.00 0.00 82 1006.2
20260505094539 47 133 0.0 0.0 0.00 0.00 0.00 81 1006.3
20260505093044 47 133 0.0 0.0 0.00 0.00 0.00 81 1006.3
20260505091543 46 129 0.0 0.0 0.00 0.00 0.00 81 1006.2
20260505090047 46 129 0.0 0.0 0.00 0.00 0.00 81 1006.2
20260505084532 47 129 0.0 0.0 0.00 0.00 0.00 79 1006.3
20260505083029 48 129 0.0 0.0 0.00 0.00 0.00 77 1006.4
20260505081535 49 129 0.0 0.0 0.00 0.00 0.00 76 1006.4
20260505080043 49 129 0.0 0.0 0.00 0.00 0.00 74 1006.5
20260505074520 50 129 0.0 0.0 0.00 0.00 0.00 73 1006.5
20260505073019 50 129 0.0 0.0 0.00 0.00 0.00 72 1006.6
20260505071515 51 129 0.0 0.0 0.00 0.00 0.00 71 1006.6
20260505070018 52 128 0.0 0.0 0.00 0.00 0.00 68 1006.5
20260505064508 54 129 0.0 1.0 0.00 0.00 0.00 63 1006.5
20260505063006 56 128 0.0 6.0 0.00 0.00 0.00 59 1006.5
20260505061505 56 203 0.0 5.0 0.00 0.00 0.00 59 1006.5
20260505054600 57 217 0.0 3.0 0.00 0.00 0.00 58 1006.5
20260505053103 56 175 0.0 2.0 0.00 0.00 0.00 58 1006.4
20260505051555 57 182 0.0 10.0 0.00 0.00 0.00 57 1006.6
20260505050124 57 99 0.0 1.0 0.00 0.00 0.00 57 1006.7
20260505041601 58 290 0.0 5.0 0.00 0.00 0.00 55 1006.4
20260505040054 58 255 0.0 7.0 0.00 0.00 0.00 55 1006.3
20260505034544 59 144 0.0 7.0 0.00 0.00 0.00 54 1006.1
20260505033047 59 142 0.0 4.0 0.00 0.00 0.00 53 1006.1
20260505031547 59 213 0.0 7.0 0.00 0.00 0.00 53 1006.0
20260505030043 58 186 0.0 7.0 0.00 0.00 0.00 54 1006.1
20260505024542 54 250 1.0 9.0 0.00 0.00 0.00 61 1006.0
20260505023045 51 213 0.0 0.0 0.00 0.00 0.00 71 1005.9
20260505021542 52 213 0.0 0.0 0.00 0.00 0.00 69 1005.7
20260505020040 52 213 0.0 0.0 0.00 0.00 0.00 67 1005.7
20260505014600 53 213 0.0 0.0 0.00 0.00 0.00 66 1005.5
20260505013042 53 213 0.0 0.0 0.00 0.00 0.00 66 1005.4
20260505011539 54 213 0.0 0.0 0.00 0.00 0.00 64 1005.2
20260505010038 54 213 0.0 0.0 0.00 0.00 0.00 61 1005.0
20260505004542 55 213 0.0 0.0 0.00 0.00 0.00 61 1004.8
20260505003037 56 213 0.0 0.0 0.00 0.00 0.00 59 1004.6
20260505001537 57 213 0.0 0.0 0.00 0.00 0.00 55 1004.4
20260505000040 60 213 0.0 0.0 0.00 0.00 0.00 50 1004.3
20260504234548 62 213 0.0 0.0 0.00 0.00 0.00 44 1004.0
20260504233033 65 211 0.0 0.0 0.00 0.00 0.00 39 1003.9
20260504231527 66 227 0.0 3.0 0.00 0.00 0.00 36 1003.8
20260504230026 67 204 0.0 4.0 0.00 0.00 0.00 34 1003.5
20260504224528 68 193 0.0 6.0 0.00 0.00 0.00 33 1003.3
20260504223025 68 167 0.0 9.0 0.00 0.00 0.00 33 1003.3
20260504221529 69 228 1.0 9.0 0.00 0.00 0.00 32 1003.2